www.pogodaiklimat.ru

Погода и климат >> Архив погоды >> Франция >> Ланьон


ПОГОДА в Ланьоне

  • Прогноз погоды в Ланьоне
  • Монитор погоды в Ланьоне

АРХИВ ПОГОДЫ в Ланьоне

Время (UTC), дата Ветер
(напр.,м/с)
 
Видим.   Явления Облачность Т
(С)
Тd
(С)
f
(%)
Тe
(С)
Тes
(С)
Комфортность P
(гПа)
Po
(гПа)
Тmin
(С)
Tmax
(С)
R
(мм)
R24
(мм)
S
(см)
01 9.06 ЮВ 1-2
{2}
14 км н/о +8.1 +7.0 93 +7 +7 1022.8 1012.1
02 9.06 ЮВ 1 18 км н/о +8.0 +7.2 95 +8 +8 1022.8 1012.1
03 9.06 штиль 0
{2}
19 км 10/0 2000 м
[]
+8.6 +8.0 96 +8 +8 1022.4 1011.7 0
04 9.06 Ю 1 19 км 10/10 2000 м
[]
+8.6 +8.0 96 +9 +9 1022.2 1011.5
05 9.06 ЮВ 1 19 км н/о +8.7 +8.1 96 +8 +8 1022.0 1011.3
06 9.06 ЮВ 1
{2}
19 км 10/0
[]
+10.3 +9.5 95 +11 +11 1021.8 1011.2 +7.8 +14.4 0
07 9.06 ЮВ 1 19 км 8/8 1500 м
[]
+12.3 +10.9 91 +12 +13 1021.9 1011.4
08 9.06 В 1 40 км н/о +14.4 +10.8 79 +15 +15 1021.6 1011.2
09 9.06 В 1
{4}
19 км н/о +15.0 +10.0 72 +16 +16 1021.2 1010.8 0
10 9.06 В 1 19 км 9/6 750 м
[]
+17.4 +9.8 61 +18 +23 1020.9 1010.6
11 9.06 С 2 18 км 10/10 1140 м
[]
+14.9 +10.7 76 +15 +15 1020.7 1010.3
12 9.06 С 2
{8}
3800 м дождь 10/10 600 м
[]
+13.2 +10.4 83 +12 +16 1020.5 1010.0 2 0
13 9.06 СВ 2 6000 м слаб. дождь 10/1 1230 м
[]
+12.0 +10.7 92 +11 +20 1020.6 1010.1 6
14 9.06 СВ 2-3
{4}
7000 м слаб. дождь 10/10 1500 м
[]
+12.3 +11.0 92 +12 +12 1020.2 1009.7 3
15 9.06 С 1
{5}
14 км слаб. дождь 10/10 300 м
[]
+13.4 +11.6 89 +14 +20 1020.4 1009.9 9 0
16 9.06 С 1-2
{2}
19 км 10/1 400 м
[]
+13.0 +10.9 87 +13 +18 1020.1 1009.6 0.2
17 9.06 СЗ 1 45 км 10/9 570 м
[]
+12.8 +10.9 88 +14 +14 1020.2 1009.7 0.2
18 9.06 З 1
{3}
19 км 10/10 600 м
[]
+12.5 +11.2 92 +12 +14 1020.1 1009.6 +10.2 +17.4 0.4 0
19 9.06 СЗ 1 35 км 10/10 2000 м
[]
+12.3 +11.0 92 +13 +13 1019.9 1009.4 0.0
20 9.06 С 1-1
{1}
19 км 10/10
[]
+12.2 +11.1 93 +13 +13 1019.8 1009.3
21 9.06 штиль 0-1
{1}
17 км 10/0
[]
+11.5 +10.6 94 +11 +11 1020.0 1009.5 0.0 0
22 9.06 штиль 0 11 км 10/10 2000 м
[]
+11.2 +10.4 95 +10 +10 1020.0 1009.5
23 9.06 З 1 10 км 10/4 840 м
[]
+10.7 +10.1 96 +10 +10 1020.1 1009.5
00 10.06 З 2
{4}
30 км слаб. дождь 10/10 1500 м
[]
+10.3 +9.5 95 +9 +9 1019.9 1009.3 0.2
01 10.06 З 1-1
{2}
8000 м слаб. дождь 10/10 1500 м
[]
+10.4 +9.6 95 +11 +11 1019.3 1008.7 0.6
02 10.06 ЮЗ 1 6000 м 10/3 330 м
[]
+10.5 +9.9 96 +10 +10 1019.1 1008.5 0.0
03 10.06 ЮЗ 2
{4}
3900 м дождь 10/10 300 м
[]
+10.6 +10.1 97 +9 +9 1018.5 1008.0 1 0
04 10.06 Ю 1 13 км н/о +9.3 +8.7 96 +10 +10 1018.1 1007.5 0.2
05 10.06 Ю 1 7000 м 10/6 90 м
[]
+8.5 +8.1 97 +9 +9 1018.0 1007.4
06 10.06 Ю 1
{2}
5000 м н/о +9.4 +8.9 97 +10 +10 1017.8 1007.2 +8.5 +12.5 0.2 0
07 10.06 ЮЗ 1 16 км 9/3 720 м
[]
+11.0 +10.5 97 +11 +12 1017.7 1007.2
08 10.06 З 2 19 км н/о +12.8 +11.4 91 +12 +12 1017.5 1007.0
09 10.06 З 2
{6}
60 км н/о +14.0 +10.6 80 +14 +14 1017.1 1006.7 0
10 10.06 СЗ 2 55 км н/о +13.5 +9.9 79 +13 +13 1017.2 1006.8
11 10.06 СЗ 2-4
{4}
55 км н/о +13.2 +8.1 71 +13 +13 1016.8 1006.4
12 10.06 З 3
{7}
55 км 8/8 600 м
[]
+13.7 +7.9 68 +13 +16 1016.5 1006.1 0
13 10.06 СЗ 2-3
{4}
19 км 8/8 900 м
[]
+13.6 +7.6 67 +13 +17 1016.2 1005.8
14 10.06 СЗ 3-4
{5}
60 км н/о +14.7 +8.9 68 +14 +14 1015.8 1005.4
15 10.06 СЗ 2
{8}
55 км 9/9 600 м
[]
+13.7 +9.1 74 +13 +14 1015.6 1005.2 0
16 10.06 СЗ 2-3
{4}
19 км 8/8 660 м
[]
+13.8 +8.2 69 +13 +15 1015.5 1005.1
17 10.06 СЗ 2-3
{4}
60 км н/о +14.1 +8.7 70 +14 +14 1015.5 1005.1
18 10.06 СЗ 2
{7}
60 км 9/9 300 м
[]
+12.5 +9.0 79 +12 +12 1015.3 1004.9 +9.4 +15.3 0
19 10.06 С 2 55 км 9/9 630 м
[]
+13.0 +8.7 75 +12 +12 1015.3 1004.9
20 10.06 СЗ 1-2
{4}
60 км н/о +11.6 +9.0 84 +11 +11 1015.4 1004.9
21 10.06 СЗ 2
{5}
60 км 8/8 300 м
[]
+11.3 +9.0 86 +10 +10 1015.8 1005.3 0
22 10.06 СЗ 1 60 км 8/4 480 м
[]
+10.7 +8.8 88 +10 +10 1015.5 1005.0
23 10.06 СЗ 2 60 км 10/4 480 м
[]
+11.2 +9.1 87 +10 +10 1014.9 1004.4
00 11.06 СЗ 2
{7}
60 км 10/10 300 м
[]
+10.9 +8.3 84 +10 +10 1014.4 1003.9 0
01 11.06 СЗ 2 15 км слаб. дождь 10/9 420 м
[]
+10.8 +9.4 91 +9 +9 1013.8 1003.3 0.2
02 11.06 СЗ 2 12 км слаб. дождь 10/10 450 м
[]
+9.7 +8.5 92 +8 +8 1013.4 1002.9 0.8
03 11.06 СЗ 2
{6}
60 км 10/10 300 м
[]
+10.0 +8.6 91 +9 +9 1012.7 1002.2 1 0
04 11.06 СЗ 2 10 км слаб. дождь 10/10 330 м
[]
+9.8 +8.6 92 +8 +8 1012.2 1001.7 1
05 11.06 СЗ 2 12 км слаб. дождь 10/10 240 м
[]
+9.7 +8.8 94 +8 +8 1011.9 1001.4 2
06 11.06 СЗ 3
{10}
10 км слаб. дождь 10/10 200 м
[]
+9.7 +8.8 94 +7 +7 1011.6 1001.1 +9.6 +13.3 3 0
07 11.06 СЗ 3 11 км слаб. дождь 10/10 270 м
[]
+10.0 +9.1 94 +8 +8 1011.1 1000.6 0.8
08 11.06 СЗ 3-5
{7}
2300 м слаб. дождь 10/10 150 м
[]
+9.9 +9.1 95 +8 +8 1010.6 1000.1 0.8
09 11.06 СЗ 3-6
{6}
2500 м слаб. дождь 10/10 100 м
[]
+10.2 +9.6 96 +8 +8 1010.1 999.6 4 0
10 11.06 СЗ 3-5
{7}
3500 м слаб. морось 10/10 120 м
[]
+10.6 +10.1 97 +8 +8 1009.8 999.3 0.6
11 11.06 С 2 17 км 10/10 210 м
[]
+11.5 +11.0 97 +10 +10 1009.6 999.2 0.0
12 11.06 С 2
{9}
5000 м дождь 10/10 100 м
[]
+11.6 +11.0 96 +11 +11 1009.3 998.9 2 0
13 11.06 С 1 5000 м дождь 10/10 210 м
[]
+10.6 +10.0 96 +11 +11 1009.6 999.1 7
14 11.06 СВ 1 30 км 10/10 300 м
[]
+12.0 +10.9 93 +13 +13 1009.4 999.0 0.8
15 11.06 С 3
{8}
60 км 10/10 300 м
[]
+12.8 +11.2 90 +12 +13 1009.5 999.1 8 0
16 11.06 СВ 3 50 км 9/9 420 м
[]
+13.5 +10.5 82 +13 +13 1010.1 999.7
17 11.06 С 3 55 км 10/9 540 м
[]
+13.2 +9.8 80 +12 +12 1010.4 1000.0
18 11.06 С 3
{10}
55 км 9/9 300 м
[]
+13.8 +10.4 80 +13 +13 1010.6 1000.3 +9.7 +14.2 0
19 11.06 С 3 55 км 10/9 330 м
[]
+13.2 +10.7 85 +12 +12 1011.4 1001.0
20 11.06 С 3 55 км 9/9 330 м
[]
+12.7 +10.8 88 +11 +11 1011.6 1001.2
21 11.06 С 3
{11}
60 км 10/10 300 м
[]
+12.4 +10.1 86 +11 +11 1011.8 1001.4 0
22 11.06 С 3 55 км 9/9 400 м
[]
+12.3 +10.4 88 +11 +11 1011.9 1001.5
23 11.06 С 3-4
{5}
50 км 10/10 330 м
[]
+12.4 +10.6 89 +11 +11 1011.8 1001.4
00 12.06 С 3
{11}
35 км 9/9 200 м
[]
+12.1 +10.5 90 +11 +11 1011.2 1000.8 0
01 12.06 С 3 45 км 10/10 270 м
[]
+11.9 +10.5 91 +10 +10 1010.9 1000.5
02 12.06 С 2 19 км 10/10 240 м
[]
+12.0 +10.6 91 +11 +11 1010.4 1000.0
01 13.06 ЮЗ 1-1
{1}
19 км 10/10 1440 м
[]
+10.2 +9.6 96 +11 +11 1009.8 999.3
02 13.06 Ю 1 18 км 10/9 480 м
[]
+10.2 +9.4 95 +11 +11 1009.2 998.7
04 13.06 Ю 1-2
{2}
5000 м н/о +8.9 +8.3 96 +8 +8 1008.5 998.0
05 13.06 Ю 1-2
{2}
6000 м н/о +8.9 +8.4 97 +8 +8 1008.7 998.2
07 13.06 ЮЗ 2 19 км 10/1 750 м
[]
+11.5 +9.7 89 +10 +12 1009.0 998.6
08 13.06 ЮЗ 2 50 км 10/10 450 м
[]
+12.5 +9.9 84 +12 +12 1009.2 998.8
09 13.06 ЮЗ 3 19 км 10/4 570 м
[]
+13.4 +9.8 79 +12 +15 1009.2 998.9
10 13.06 ЮЗ 3 55 км 10/9 630 м
[]
+14.0 +10.2 78 +13 +14 1009.3 999.0
11 13.06 ЮЗ 3 60 км 10/10 750 м
[]
+14.7 +9.7 72 +14 +14 1009.3 999.0
12 13.06 З 3
{9}
55 км 10/10 600 м
[]
+14.2 +10.2 77 +13 +17 1009.4 999.1 0
13 13.06 З 3 19 км 10/4 570 м
[]
+16.3 +10.6 69 +16 +20 1009.4 999.2
14 13.06 ЮЗ 3 60 км 10/3 960 м
[]
+15.7 +10.0 69 +15 +20 1009.6 999.3
15 13.06 З 4
{9}
40 км н/о +15.6 +10.6 72 +15 +15 1009.6 999.3 0
16 13.06 З 3 50 км 10/1 1020 м
[]
+14.6 +10.6 77 +14 +17 1009.8 999.5
17 13.06 З 3 55 км 10/4 1050 м
[]
+14.7 +11.1 79 +14 +16 1009.8 999.5
18 13.06 З 2
{7}
55 км 10/10 600 м
[]
+14.1 +11.3 83 +14 +14 1010.2 999.9 +10.1 +16.6 0
19 13.06 З 2-3
{3}
60 км 10/10 1500 м
[]
+13.8 +11.3 85 +14 +14 1010.5 1000.2
20 13.06 ЮЗ 2 60 км 10/5 800 м
[]
+13.5 +9.5 77 +13 +13 1010.6 1000.2
21 13.06 ЮЗ 2
{7}
60 км 10/10 600 м
[]
+13.0 +10.0 82 +12 +12 1011.2 1000.8 0
22 13.06 ЮЗ 2 60 км 10/1 1000 м
[]
+12.5 +9.9 84 +12 +12 1011.4 1001.0
23 13.06 Ю 2 60 км 9/3 1020 м
[]
+11.6 +9.7 88 +11 +11 1011.3 1000.9
00 14.06 Ю 2
{6}
60 км 10/10 600 м
[]
+11.7 +9.8 88 +10 +10 1011.2 1000.8 0
01 14.06 Ю 3-4
{4}
60 км 10/10 1350 м
[]
+12.2 +10.1 87 +11 +11 1011.1 1000.7
02 14.06 Ю 3 60 км 9/9 1500 м
[]
+11.6 +9.8 89 +10 +10 1010.6 1000.2
03 14.06 Ю 2
{6}
60 км 10/10 600 м
[]
+11.5 +10.1 91 +10 +10 1010.5 1000.1 0
04 14.06 Ю 2 60 км 10/6 930 м
[]
+11.4 +10.0 91 +10 +10 1010.6 1000.2
05 14.06 Ю 2 55 км 10/9 330 м
[]
+11.8 +10.4 91 +11 +11 1011.0 1000.6
06 14.06 Ю 2
{7}
60 км 9/9 300 м
[]
+13.0 +10.9 87 +12 +12 1011.1 1000.7 +11.2 +14.1 0
07 14.06 Ю 2-4
{4}
10 км 10/10 360 м
[]
+12.6 +10.8 89 +12 +12 1011.5 1001.1 0.0
08 14.06 ЮЗ 3 40 км 8/1 30 м
[]
+14.3 +11.4 83 +14 +17 1011.5 1001.2
09 14.06 ЮЗ 3
{11}
19 км 9/9 600 м
[]
+14.8 +10.2 74 +14 +15 1011.9 1001.6 0.0 0
10 14.06 ЮЗ 4 19 км 10/9 840 м
[]
+16.6 +10.9 69 +16 +17 1011.9 1001.6
11 14.06 ЮЗ 3 40 км 9/9 1110 м
[]
+16.7 +9.4 62 +16 +18 1011.8 1001.5
12 14.06 ЮЗ 3
{11}
19 км 10/10 1000 м
[]
+15.5 +9.6 68 +15 +20 1012.1 1001.8 0
13 14.06 З 2 19 км 10/1 1170 м
[]
+15.5 +11.9 79 +15 +23 1012.1 1001.8
14 14.06 З 2 19 км 10/3 1080 м
[]
+15.1 +11.3 78 +15 +21 1012.1 1001.8
15 14.06 Ю 2
{9}
19 км 10/10 600 м
[]
+15.4 +10.6 73 +15 +16 1012.1 1001.8 0
16 14.06 Ю 3 55 км 10/8 1080 м
[]
+16.2 +10.3 68 +16 +17 1012.0 1001.7 0.0
17 14.06 ЮЗ 2 60 км 10/9 1020 м
[]
+16.9 +10.3 65 +17 +17 1011.9 1001.6
18 14.06 ЮЗ 2
{9}
19 км 10/10 1000 м
[]
+15.4 +9.5 68 +15 +15 1012.3 1002.0 +12.6 +18.3 0.0 0
19 14.06 ЮЗ 2 55 км 10/3 1300 м
[]
+14.3 +10.5 78 +14 +14 1012.4 1002.1 0.0
20 14.06 ЮЗ 2 60 км н/о +13.6 +9.8 78 +13 +13 1012.3 1001.9
21 14.06 Ю 2
{6}
60 км 10/10 1500 м
[]
+13.4 +10.0 80 +13 +13 1012.9 1002.5 0.0 0
22 14.06 Ю 2-2
{3}
60 км 10/10 1500 м
[]
+13.1 +10.1 82 +13 +13 1013.0 1002.6
23 14.06 Ю 2-3
{3}
60 км 10/10 2000 м
[]
+12.8 +10.3 85 +12 +12 1013.1 1002.7
00 15.06 Ю 2-3
{4}
60 км 10/0 2000 м
[]
+12.8 +10.7 87 +12 +12 1012.9 1002.5 0
01 15.06 Ю 2-3
{3}
60 км н/о +12.2 +10.4 89 +12 +12 1012.6 1002.2
02 15.06 Ю 2-3
{3}
55 км н/о +11.6 +10.2 91 +11 +11 1012.6 1002.2
03 15.06 Ю 2
{5}
55 км 9/0
[]
+11.4 +10.1 92 +11 +11 1012.5 1002.0 0
04 15.06 Ю 2-4
{4}
18 км слаб. дождь 10/10 2000 м
[]
+11.9 +10.5 91 +11 +11 1012.4 1002.0 0.2
05 15.06 Ю 2 19 км слаб. дождь 10/10 2000 м
[]
+12.1 +10.5 90 +11 +11 1012.2 1001.8 0.2
06 15.06 Ю 3
{9}
45 км слаб. дождь 10/10 600 м
[]
+12.4 +10.6 89 +11 +11 1012.4 1002.0 +11.3 +15.3 0.4 0
07 15.06 Ю 3 50 км 10/8 700 м
[]
+12.8 +10.3 85 +12 +12 1012.8 1002.4 0.0
08 15.06 Ю 3 19 км 10/10 450 м
[]
+13.6 +11.3 86 +13 +13 1013.1 1002.7 0.0
09 15.06 Ю 3-4
{5}
10 км слаб. морось 10/10 300 м
[]
+13.6 +12.2 91 +13 +13 1013.3 1002.9 0.0 0
10 15.06 ЮЗ 3 35 км 10/10 450 м
[]
+15.2 +12.5 84 +14 +14 1013.3 1003.0 0.0
11 15.06 Ю 2 50 км 10/10 420 м
[]
+15.0 +13.9 93 +15 +15 1013.4 1003.1 2
12 15.06 Ю 3
{9}
12 км 10/10 200 м
[]
+15.7 +14.1 90 +15 +15 1013.5 1003.2 2 0
13 15.06 З 2 55 км 10/10 400 м
[]
+14.6 +12.8 89 +14 +14 1013.4 1003.1 0.2
14 15.06 ЮЗ 3 19 км н/о +17.1 +15.6 91 +17 +17 1013.8 1003.6 1
15 15.06 З 3
{9}
19 км 9/9 300 м
[]
+17.2 +13.7 80 +17 +22 1014.4 1004.1 1 0
16 15.06 З 2 14 км слаб. дождь 10/9 300 м
[]
+14.5 +12.7 89 +14 +14 1014.9 1004.5 0.4
17 15.06 З 1 13 км дождь 10/9 360 м
[]
+14.4 +12.6 89 +15 +15 1015.0 1004.6 0.2
18 15.06 ЮЗ 2
{7}
3900 м слаб. дождь 10/10 100 м
[]
+13.8 +12.9 94 +13 +13 1015.3 1004.9 +12.4 +17.9 2 0
19 15.06 Ю 2 17 км 10/10 300 м
[]
+14.2 +13.2 94 +14 +14 1015.4 1005.0 0.2
20 15.06 ЮЗ 3-4
{4}
50 км 9/9 360 м
[]
+13.8 +12.9 94 +13 +13 1015.8 1005.4 0.4
21 15.06 ЮЗ 2
{8}
50 км 9/9 300 м
[]
+13.1 +12.2 94 +12 +12 1016.5 1006.1 0.6 0
22 15.06 ЮЗ 2 40 км 9/9 630 м
[]
+12.6 +11.7 94 +12 +12 1016.9 1006.4
23 15.06 Ю 2 20 км 10/9 400 м
[]
+12.9 +12.0 94 +12 +12 1017.0 1006.6
00 16.06 Ю 2
{6}
40 км 9/9 300 м
[]
+12.9 +12.0 94 +12 +12 1017.2 1006.8 0.0 0

 

Местоположение метеостанции Ланьон (Франция): широта 48.75 долгота -3.47 высота над уровнем моря 91 м.

В архиве по умолчанию представлена погода в Ланьоне за последнюю неделю. Архивные данные за месяц целиком и за предыдущие месяцы, начиная с января 2011 года, Вы можете получить, выбрав интересующий диапазон дат из раскрывающегося списка и нажав кнопку "Ввод!".


*Определитесь, кто Вы:
робот инопланетянин человек

Внимание! Время в таблицах - всемирное. Для получения местного времени необходимо прибавить поправку, которая равна 1 ч.

Смотрите также архив погоды в соседних городах и на ближайших метеорологических станциях:

Погода в Перрос-Гиреке (Франция) (9 км)
Погода в Иль-де-Ба (Франция) (40 км)
Погода в Сен-Бриё аэропорту (Франция) (52 км)
Погода в Ландивизио (Франция) (56 км)
Погода в Бриньоган-Пляже (Франция) (64 км)
Погода в Бресте (Франция) (77 км)
Погода в Плудальмезо (Франция) (90 км)
Погода в Аэропорту Гернси (Великобритания) (99 км)
Погода в Кемпере (Франция) (101 км)
Погода в Динаре (Франция) (105 км)

Пояснения к столбцам:

Ветер - указаны скорость ветра в м/с - средняя за 10 мин, порывы в срок и между сроками (в фигурных скобках) и направление, откуда дует ветер: С - северный, СВ - северо-восточный, В - восточный, ЮВ - юго-восточный, Ю - южный, ЮЗ - юго-западный, З - западный, СЗ - северо-западный.
Видимость - горизонтальная дальность видимости в метрах или километрах. При видимости от 1 до 10 км при отсутствии осадков обычно наблюдается дымка, при ухудшении видимости до 1 км и менее - туман. В сухую погоду видимость может ухудшаться дымом, пылью или мглою.
Явления - указаны атмосферные явления, наблюдавшиеся в срок или в последний час перед сроком; фигурными скобками обозначены явления, наблюдавшиеся между сроками (за 1-3 часа до срока); квадратными скобками обозначены град или гололедные отложения с указанием их диаметра в мм.
Облачность - указаны через наклонную черту общая и нижняя облачность в баллах и высота нижней границы облаков в метрах; квадратными скобками обозначены формы облаков: Ci - перистые, Cs - перисто-слоистые, Cc - перисто-кучевые, Ac - высококучевые, As - высокослоистые, Sc - слоисто-кучевые, Ns - слоисто-дождевые, Cu - кучевые, Cb - кучево-дождевые. Подробнее классификацию облаков см. в Атласе облаков (PDF).
T - Температура воздуха - температура, измеренная на высоте 2 м над землей.
Td - Температура точки росы - температура, при понижении до которой содержащийся в воздухе водяной пар достигнет насыщения.
f - Относительная влажность воздуха - влажноcть воздуха, измеренная на высоте 2 м над землей.
Te - Эффективная температура - температура, которую ощущает одетый по сезону человек в тени. Характеристика душности погоды. При расчете учитывается влияние влажности воздуха и скорости ветра на теплоощущения человека.
Tes - Эффективная температура на солнце - температура, которую ощущает человек, с поправкой на солнечный нагрев. Характеристика знойности погоды. Зависит от высоты солнца над горизонтом, облачности и скорости ветра. Ночью, в пасмурную погоду, а также при ветре 12 м/с и более поправка равна нулю.
P - Атмосферное давление - приведенное к уровню моря атмосферное давление.
Po - Атмосферное давление - измеренное на уровне метеостанции атмосферное давление.
Tmin - Минимальная температура - минимум температуры воздуха на высоте 2 м над землей.
Tmax - Максимальная температура - максимум температуры воздуха на высоте 2 м над землей.
R - Количество осадков - Количество выпавших осадков за период времени, мм. При наведении курсора мыши на число - период времени, за который выпало указанное количество осадков.
R24 - Количество осадков - Количество выпавших осадков за 24 часа, мм.
S - Снежный покров - Высота снежного покрова, см. При наведении курсора мыши на число - состояние снежного покрова и степень покрытия местности в баллах.